Showing default

YUNHAI 2-1E, 43913

Orbit data source: Space-Track

YUNHAI 2-1E, 43913 is a payload satellite owned by CASC (CN) in LEO that was launched on Sat, 29 Dec 2018 UTC via a CHANG ZHENG 2D/YZ-3 launch vehicle from the Jiuquan Satellite Launch Center, China (JSC). Payload-class satellites include a variety of spacecraft equipped with specific instruments for various scientific and technological missions. These include communications satellites like Starlink; space stations such as the ISS; scientific satellites like the Hubble; Earth observation satellites from companies like Planet Labs, Umbra, and HawkEye 360; GPS; miniature CubeSats for education and research; and military/defense satellites.

Loading next visibility...
Identifier
43913, 2018-112E
Orbit
LEO
Country
Flag of CNCN / PRC
Related business
Manufacturer
DFH Shenzhen
Mission
Operational Defense Meteo Radio Occ.
Bus & Motor
YH-2, Unknown motor
Mass
~100 kg wet, ~100 kg dry
Launch date (UTC)
2018-12-29 (7 years ago)
Launch vehicle
CHANG ZHENG 2D/YZ-3
Launch site
Jiuquan Satellite Launch Center, China (JSC)
Object type
Payload
Rocket body
Debris
Shape & HBR
Box + 2 Pan, 0.5 m
Radar Cross Section
0.166 m², Large (>1 m²)

Expand to show TLE details & history
Last TLE update: 5 hours ago

TLE from 5 hours ago
0 YUNHAI 2-1E
1 43913U 18112E   26035.21057201  .00000105  00000-0  10486-3 0  9995
2 43913  50.0083  11.2141 0005302 260.6628  99.3687 14.28946414370148
Epoch: 2026-02-04T05:03Z
TLE epoch observation values (Epoch: 2026-02-04T05:03:13.421Z)
Latitude
-0.00009°
Longitude
161.02769°
Altitude
796.407 km
Speed
7.456 km/s
True Right ascension
00h 44m 51s
True Declination
0° 00' 00"
Sunlit
Object was in daylight at epoch
Visualization orbit readout
Latitude
Unknown
Longitude
Unknown
Altitude
Unknown
Speed
Unknown
Apparent Right ascension
Unknown
Apparent Declination
Unknown
Sunlit
N/A
Visualization observer readout
Local Sidereal Time
12:23:34
Azimuth
Unknown
Elevation
Unknown
Doppler factor
Unknown
Orbital elements
Apogee altitude
799.797 km
Perigee altitude
792.189 km
Semi-major axis
7,174.13 km
Eccentricity
0.00053
Inclination
50.0083°
RAAN
11.2141°
Arg. of periapsis
260.6628°
True anomaly
99.42864°
Mean anomaly
99.3687°
Eccentric anomaly
99.39867°
Mean motion
3.57182 °/min
Orbital period
100.79 mins
BSTAR
0.00010486
Loading maneuver chart data...
Computing Atmospheric mass density...
Loading historical data...
Loading historical data...
Loading historical data...
Loading historical data...
Loading historical data...
Loading historical data...
Loading historical data...

Documentation

Showing up to 5 results
|